Weather History for Faro / Aeroporto, Portugal

Change the Weather History Date:

Thursday, February 27, 2014

  Actual Average Record
Temperature  
Mean Temperature 54 °F -  
Max Temperature 62 °F 64 °F - ()
Min Temperature 45 °F 50 °F - ()
Degree Days  
Heating Degree Days 12    
Growing Degree Days 4 (Base 50)    
Moisture  
Dew Point 49 °F    
Average Humidity 79    
Maximum Humidity 94    
Minimum Humidity 49    
Precipitation  
Precipitation 0.00 in 0.06 in - ()
Sea Level Pressure  
Sea Level Pressure 30.47 in    
Wind  
Wind Speed 6 mph ()    
Max Wind Speed 14 mph    
Max Gust Speed -    
Visibility 7.3 miles    
Events      
T = Trace of Precipitation, MM = Missing Value Source: Averaged Metar Reports

Daily Weather History Graph

Daily Weather History Graph

Search for Another Location

Airport:

Trip Planner

Search our weather history database for the weather conditions in past years. The results will help you decide how hot, cold, wet, or windy it might be!

Date:

Astronomy

Feb. 27, 2014 Rise Set
Actual Time 7:05 AM WET 6:23 PM WET
Civil Twilight 6:39 AM WET 6:50 PM WET
Nautical Twilight 6:09 AM WET 7:20 PM WET
Astronomical Twilight 5:39 AM WET 7:50 PM WET
Moon 5:26 AM WET (2/27) 4:34 PM WET (2/27)
Length of Visible Light 12h 10m
Length of Day
11h 18m
Waning Crescent, 5% of the Moon is Illuminated
Feb 27
Waning Crescent
Mar 1
New
Mar 8
First Quarter
Mar 16
Full
Mar 24
Last Quarter

Hourly Weather History & Observations

Time (WET) Temp. Windchill Dew Point Humidity Pressure Visibility Wind Dir Wind Speed Gust Speed Precip Events Conditions
12:00 AM 49 °F - 43 °F 71% 30.51 in 9 mi WNW 2.2 mph - -   Scattered Clouds
12:00 AM 48.2 °F - 44.6 °F 87% 30.48 in - Variable 2.3 mph - N/A   Clear
12:30 AM 50.0 °F - 44.6 °F 82% 30.48 in - West 3.5 mph - N/A   Clear
1:00 AM 51 °F - 44 °F 70% 30.50 in - NW 4.5 mph - -  
1:00 AM 50.0 °F - 46.4 °F 87% 30.48 in - NW 6.9 mph - N/A   Clear
1:30 AM 50.0 °F - 44.6 °F 82% 30.48 in - NW 5.8 mph - N/A   Clear
2:00 AM 49 °F - 43 °F 74% 30.51 in - Calm Calm - -  
2:00 AM 48.2 °F - 44.6 °F 87% 30.48 in - WNW 3.5 mph - N/A   Clear
2:30 AM 50.0 °F - 46.4 °F 87% 30.45 in - NW 5.8 mph - N/A   Clear
3:00 AM 50 °F - 44 °F 74% 30.50 in 9 mi WNW 4.5 mph - -   Partly Cloudy
3:00 AM 50.0 °F - 46.4 °F 87% 30.48 in - WNW 6.9 mph - N/A   Clear
3:30 AM 50.0 °F - 46.4 °F 87% 30.48 in - NW 11.5 mph - N/A   Clear
4:00 AM 49 °F - 44 °F 75% 30.50 in - NNW 6.7 mph - -  
4:00 AM 48.2 °F - 46.4 °F 93% 30.48 in - NNW 6.9 mph - N/A   Clear
4:30 AM 48.2 °F - 44.6 °F 87% 30.45 in - North 6.9 mph - N/A   Clear
5:00 AM 50 °F - 42 °F 67% 30.50 in - NNW 4.5 mph - -  
5:00 AM 48.2 °F - 44.6 °F 87% 30.48 in - NNE 3.5 mph - N/A   Clear
5:30 AM 44.6 °F 41.4 °F 42.8 °F 93% 30.48 in - NNW 5.8 mph - N/A   Clear
6:00 AM 49 °F - 42 °F 70% 30.50 in 9 mi NNW 4.5 mph - -   Mostly Cloudy
6:00 AM 48.2 °F - 44.6 °F 87% 30.48 in - North 5.8 mph - N/A   Clear
6:30 AM 46.4 °F 45.2 °F 42.8 °F 87% 30.48 in - NW 3.5 mph - N/A   Clear
7:00 AM 49 °F - 42 °F 71% 30.50 in - NW 4.5 mph - -  
7:00 AM 50.0 °F - 44.6 °F 82% 30.48 in - North 5.8 mph - N/A   Clear
7:30 AM 48.2 °F - 44.6 °F 87% 30.48 in - NNW 4.6 mph - N/A   Clear
8:00 AM 50 °F - 44 °F 74% 30.51 in - NNW 4.5 mph - -  
8:00 AM 48.2 °F - 44.6 °F 87% 30.48 in - NNW 4.6 mph - N/A   Clear
8:30 AM 51.8 °F - 46.4 °F 82% 30.48 in - WSW 3.5 mph - N/A   Clear
9:00 AM 52 °F - 45 °F 69% 30.52 in 12 mi NW 2.2 mph - -   Partly Cloudy
9:00 AM 51.8 °F - 46.4 °F 82% 30.48 in - NNW 5.8 mph - N/A   Clear
9:30 AM 55.4 °F - 48.2 °F 77% 30.48 in - NW 3.5 mph - N/A   Clear
10:00 AM 57 °F - 47 °F 60% 30.53 in - NW 8.9 mph - -  
10:00 AM 57.2 °F - 50.0 °F 77% 30.51 in - NNW 11.5 mph - N/A   Clear
10:30 AM 59.0 °F - 48.2 °F 67% 30.48 in - NW 11.5 mph - N/A   Clear
11:00 AM 60 °F - 46 °F 49% 30.53 in - NW 8.9 mph - -  
11:00 AM 59.0 °F - 48.2 °F 67% 30.48 in - NNW 10.4 mph - N/A   Clear
11:30 AM 60.8 °F - 46.4 °F 59% 30.48 in - NNW 8.1 mph - N/A   Clear
12:00 PM 61 °F - 49 °F 55% 30.52 in 12 mi WSW 8.9 mph - -   Partly Cloudy
12:00 PM 60.8 °F - 50.0 °F 68% 30.48 in - NW 8.1 mph - N/A   Clear
12:30 PM 59.0 °F - 51.8 °F 77% 30.48 in 6.2 mi WSW 10.4 mph - N/A   Partly Cloudy
1:00 PM 60 °F - 49 °F 59% 30.49 in - SW 13.4 mph - -  
1:00 PM 59.0 °F - 50.0 °F 72% 30.48 in 6.2 mi WSW 12.7 mph - N/A   Partly Cloudy
1:30 PM 59.0 °F - 51.8 °F 77% 30.45 in 6.2 mi WSW 12.7 mph - N/A   Partly Cloudy
2:00 PM 59 °F - 50 °F 64% 30.48 in - WSW 13.4 mph - -  
2:00 PM 59.0 °F - 51.8 °F 77% 30.45 in 6.2 mi WSW 13.8 mph - N/A   Scattered Clouds
2:30 PM 57.2 °F - 53.6 °F 88% 30.45 in 6.2 mi West 13.8 mph - N/A   Mostly Cloudy
3:00 PM 59 °F - 51 °F 68% 30.47 in 7 mi WSW 8.9 mph - -   Mostly Cloudy
3:00 PM 59.0 °F - 53.6 °F 82% 30.42 in 6.2 mi WSW 10.4 mph - N/A   Mostly Cloudy
3:30 PM 59.0 °F - 53.6 °F 82% 30.45 in 6.2 mi WSW 11.5 mph - N/A   Mostly Cloudy
4:00 PM 59 °F - 52 °F 72% 30.47 in - WSW 6.7 mph - -  
4:00 PM 59.0 °F - 53.6 °F 82% 30.42 in 6.2 mi West 8.1 mph - N/A   Mostly Cloudy
4:30 PM 59.0 °F - 53.6 °F 82% 30.42 in 6.2 mi West 8.1 mph - N/A   Mostly Cloudy
5:00 PM 60 °F - 53 °F 72% 30.47 in - West 11.2 mph - -  
5:00 PM 59.0 °F - 55.4 °F 88% 30.45 in 6.2 mi West 11.5 mph - N/A   Mostly Cloudy
5:30 PM 59.0 °F - 55.4 °F 88% 30.42 in 6.2 mi West 13.8 mph - N/A   Scattered Clouds
6:00 PM 59 °F - 53 °F 74% 30.47 in 8 mi West 11.2 mph - -   Scattered Clouds
6:00 PM 59.0 °F - 55.4 °F 88% 30.45 in 6.2 mi West 10.4 mph - N/A   Partly Cloudy
6:30 PM 57.2 °F - 55.4 °F 94% 30.45 in - West 11.5 mph - N/A   Clear
7:00 PM 57 °F - 53 °F 83% 30.48 in - West 8.9 mph - -  
7:00 PM 57.2 °F - 55.4 °F 94% 30.45 in - West 10.4 mph - N/A   Clear
7:30 PM 57.2 °F - 55.4 °F 94% 30.45 in - West 11.5 mph - N/A   Clear
8:00 PM 57 °F - 54 °F 84% 30.48 in - WNW 8.9 mph - -  
8:00 PM 57.2 °F - 55.4 °F 94% 30.45 in - West 11.5 mph - N/A   Clear
8:30 PM 57.2 °F - 55.4 °F 94% 30.45 in - WNW 6.9 mph - N/A   Clear
9:00 PM 57 °F - 51 °F 75% 30.49 in 9 mi WNW 6.7 mph - -   Mostly Cloudy
9:00 PM 57.2 °F - 53.6 °F 88% 30.45 in - WNW 9.2 mph - N/A   Clear
9:30 PM 57.2 °F - 53.6 °F 88% 30.45 in - WNW 8.1 mph - N/A   Clear
10:00 PM 55 °F - 50 °F 78% 30.49 in - West 6.7 mph - -  
10:00 PM 55.4 °F - 51.8 °F 88% 30.45 in 6.2 mi WNW 8.1 mph - N/A   Mostly Cloudy
10:30 PM 55.4 °F - 51.8 °F 88% 30.45 in 6.2 mi WSW 5.8 mph - N/A   Scattered Clouds
11:00 PM 56 °F - 51 °F 77% 30.49 in - WNW 4.5 mph - -  
11:00 PM 55.4 °F - 51.8 °F 88% 30.45 in 6.2 mi WNW 8.1 mph - N/A   Scattered Clouds
11:30 PM 57.2 °F - 53.6 °F 88% 30.45 in 6.2 mi WNW 6.9 mph - N/A   Scattered Clouds